TimeCDT,TemperatureF,Dew PointF,Humidity,Sea Level PressureIn,VisibilityMPH,Wind Direction,Wind SpeedMPH,Gust SpeedMPH,PrecipitationIn,Events,Conditions,WindDirDegrees,DateUTC
12:00 AM,60.8,59.0,94,30.02,1.2,ESE,8.1,-,0.00,,Overcast,110,2013-07-29 05:00:00
12:21 AM,60.8,59.0,94,30.02,2.5,ESE,6.9,-,0.00,,Overcast,120,2013-07-29 05:21:00
12:40 AM,60.8,59.0,94,30.02,1.5,East,8.1,-,0.00,,Overcast,100,2013-07-29 05:40:00
12:53 AM,60.1,59.0,96,29.99,1.5,ESE,5.8,-,0.00,,Overcast,110,2013-07-29 05:53:00
1:53 AM,60.1,59.0,96,29.99,1.2,East,5.8,-,0.01,,Overcast,80,2013-07-29 06:53:00
2:53 AM,60.1,59.0,96,29.97,1.0,East,6.9,-,N/A,,Overcast,100,2013-07-29 07:53:00
3:53 AM,60.1,60.1,100,29.96,1.2,ENE,5.8,-,0.01,,Overcast,70,2013-07-29 08:53:00
4:53 AM,61.0,60.1,97,29.95,1.2,ENE,5.8,-,N/A,,Overcast,70,2013-07-29 09:53:00
5:53 AM,61.0,61.0,100,29.95,0.8,ENE,4.6,-,0.01,,Mist,70,2013-07-29 10:53:00
6:09 AM,62.6,60.8,94,29.98,1.0,East,5.8,-,N/A,,Mist,100,2013-07-29 11:09:00
6:20 AM,62.6,60.8,94,29.98,0.8,East,3.5,-,N/A,,Mist,80,2013-07-29 11:20:00
6:53 AM,62.1,61.0,96,29.96,0.8,East,5.8,-,N/A,,Mist,90,2013-07-29 11:53:00
7:53 AM,62.1,61.0,96,29.96,0.5,East,6.9,-,0.01,Fog,Fog,100,2013-07-29 12:53:00
8:53 AM,63.0,62.1,97,29.96,0.8,East,6.9,-,N/A,,Overcast,100,2013-07-29 13:53:00
9:13 AM,62.6,62.6,100,29.98,1.5,ESE,8.1,-,N/A,,Overcast,120,2013-07-29 14:13:00
9:31 AM,62.6,62.6,100,29.98,2.5,SE,9.2,-,N/A,,Overcast,130,2013-07-29 14:31:00
9:48 AM,64.4,62.6,94,29.97,1.2,SE,10.4,-,N/A,,Overcast,130,2013-07-29 14:48:00
9:53 AM,63.0,63.0,100,29.94,1.0,SE,8.1,-,N/A,,Overcast,140,2013-07-29 14:53:00
10:01 AM,62.6,62.6,100,29.97,0.5,SE,11.5,-,N/A,Fog,Fog,130,2013-07-29 15:01:00
10:45 AM,64.4,62.6,94,29.97,1.0,ESE,10.4,-,N/A,,Overcast,120,2013-07-29 15:45:00
10:53 AM,64.0,63.0,96,29.94,1.2,SE,9.2,-,N/A,,Overcast,130,2013-07-29 15:53:00
11:53 AM,64.9,63.0,93,29.96,2.5,ESE,5.8,-,N/A,,Overcast,120,2013-07-29 16:53:00
12:04 PM,64.4,64.4,100,29.99,3.0,ESE,4.6,-,N/A,,Overcast,120,2013-07-29 17:04:00
12:27 PM,66.2,64.4,94,29.99,4.0,Calm,Calm,-,N/A,,Overcast,0,2013-07-29 17:27:00
12:53 PM,66.9,64.0,90,29.96,4.0,East,4.6,-,N/A,,Overcast,80,2013-07-29 17:53:00
1:53 PM,69.1,64.0,84,29.96,4.0,North,4.6,-,N/A,,Haze,10,2013-07-29 18:53:00
2:41 PM,69.8,64.4,83,30.00,4.0,East,5.8,-,N/A,,Haze,80,2013-07-29 19:41:00
2:53 PM,71.1,64.0,78,29.96,5.0,ENE,6.9,-,N/A,,Haze,70,2013-07-29 19:53:00
3:27 PM,71.6,64.4,78,30.01,5.0,East,6.9,-,N/A,,Haze,80,2013-07-29 20:27:00
3:43 PM,71.6,64.4,78,30.01,5.0,ENE,6.9,-,N/A,,Haze,60,2013-07-29 20:43:00
3:53 PM,71.1,64.0,78,29.96,5.0,NE,8.1,-,N/A,,Haze,40,2013-07-29 20:53:00
4:15 PM,71.6,64.4,78,30.01,6.0,NE,8.1,-,N/A,,Haze,50,2013-07-29 21:15:00
4:53 PM,71.1,64.0,78,29.96,6.0,NNE,6.9,-,N/A,,Haze,20,2013-07-29 21:53:00
5:53 PM,71.1,63.0,75,29.96,8.0,NNE,8.1,-,N/A,,Overcast,30,2013-07-29 22:53:00
6:53 PM,71.1,63.0,75,29.95,9.0,NNE,6.9,-,N/A,,Overcast,30,2013-07-29 23:53:00
7:53 PM,72.0,63.0,73,29.97,9.0,North,9.2,-,N/A,,Overcast,10,2013-07-30 00:53:00
8:20 PM,69.8,62.6,78,30.05,8.0,NNE,10.4,-,N/A,,Scattered Clouds,30,2013-07-30 01:20:00
8:35 PM,69.8,62.6,78,30.06,8.0,NNE,9.2,-,N/A,,Mostly Cloudy,30,2013-07-30 01:35:00
8:53 PM,69.1,63.0,81,30.02,7.0,NE,6.9,-,N/A,,Overcast,40,2013-07-30 01:53:00
9:53 PM,68.0,63.0,84,30.02,8.0,ENE,6.9,-,N/A,,Mostly Cloudy,60,2013-07-30 02:53:00
10:20 PM,68.0,62.6,83,30.07,7.0,ENE,9.2,-,N/A,,Mostly Cloudy,60,2013-07-30 03:20:00
10:53 PM,66.9,64.0,90,30.02,6.0,ENE,8.1,-,N/A,,Overcast,70,2013-07-30 03:53:00
11:42 PM,66.2,64.4,94,30.07,5.0,ENE,6.9,-,N/A,,Overcast,60,2013-07-30 04:42:00
11:53 PM,66.9,64.0,90,30.02,5.0,ENE,10.4,-,N/A,,Overcast,70,2013-07-30 04:53:00